Weather History for Deer Park, WA

Change the Weather History Date:

Tuesday, May 1, 2012

  Actual Average Record
Temperature  
Mean Temperature 45 °F 48 °F  
Max Temperature 54 °F 62 °F 75 °F (2004)
Min Temperature 36 °F 34 °F 18 °F (2013)
Degree Days  
Heating Degree Days 20 17  
Month to date heating degree days 20 17  
Since 1 July heating degree days 6480 6828  
Cooling Degree Days 0 0  
Month to date cooling degree days 0 0  
Year to date cooling degree days 1 0  
Moisture  
Dew Point 33 °F    
Average Humidity 68    
Maximum Humidity 92    
Minimum Humidity 44    
Precipitation  
Precipitation 0.02 in 0.05 in 0.10 in (1999)
Month to date precipitation 0.02 0.05  
Year to date precipitation 10.72 7.95  
Sea Level Pressure  
Sea Level Pressure 29.83 in    
Wind  
Wind Speed 11 mph (South)    
Max Wind Speed 24 mph    
Max Gust Speed 32 mph    
Visibility 10 miles    
Events Rain    
T = Trace of Precipitation, MM = Missing Value Source: NWS Daily Summary

Daily Weather History Graph

Daily Weather History Graph

Search for Another Location

Airport:

Trip Planner

Search our weather history database for the weather conditions in past years. The results will help you decide how hot, cold, wet, or windy it might be!

Date:

Astronomy

May. 01, 2012 Rise Set
Actual Time 5:30 AM PDT 8:03 PM PDT
Civil Twilight 4:55 AM PDT 8:38 PM PDT
Nautical Twilight 4:12 AM PDT 9:22 PM PDT
Astronomical Twilight 3:21 AM PDT 10:14 PM PDT
Moon 2:52 PM PDT (5/1) 2:53 AM PDT (5/1)
Length of Visible Light 15h 42m
Length of Day
14h 32m
Waxing Gibbous, 75% of the Moon is Illuminated
May 1
Waxing Gibbous
May 5
Full
May 12
Last Quarter
May 20
New
May 28
First Quarter

Hourly Weather History & Observations

Time (PDT) Temp. Windchill Dew Point Humidity Pressure Visibility Wind Dir Wind Speed Gust Speed Precip Events Conditions
12:53 AM 42.1 °F 36.6 °F 32.0 °F 67% 29.73 in 10.0 mi South 9.2 mph - N/A   Clear
1:53 AM 42.1 °F 35.7 °F 30.0 °F 62% 29.74 in 10.0 mi SSW 11.5 mph - N/A   Partly Cloudy
2:53 AM 41.0 °F 36.4 °F 30.0 °F 65% 29.76 in 10.0 mi SSW 6.9 mph - N/A   Mostly Cloudy
3:53 AM 39.9 °F 34.5 °F 32.0 °F 73% 29.80 in - SSW 8.1 mph 17.3 mph 0.00 in Rain Light Rain
4:41 AM 37.4 °F 29.8 °F 35.6 °F 93% 29.80 in - South 11.5 mph - 0.02 in   Overcast
4:53 AM 37.9 °F 30.0 °F 34.0 °F 86% 29.81 in - South 12.7 mph - 0.02 in   Overcast
6:53 AM 37.9 °F 31.5 °F 35.1 °F 89% 29.85 in - South 9.2 mph - N/A   Scattered Clouds
7:53 AM 39.9 °F 32.9 °F 33.1 °F 77% 29.85 in - South 11.5 mph - N/A   Scattered Clouds
8:53 AM 43.0 °F 36.4 °F 34.0 °F 71% 29.86 in - South 12.7 mph - N/A   Partly Cloudy
9:06 AM 44.6 °F 38.4 °F 35.6 °F 71% 29.85 in - South 12.7 mph - N/A   Mostly Cloudy
9:53 AM 48.0 °F - 35.1 °F 61% 29.86 in - South 16.1 mph - N/A   Overcast
10:06 AM 46.4 °F 41.1 °F 33.8 °F 62% 29.85 in 10.0 mi SSW 11.5 mph - N/A   Overcast
10:53 AM 48.0 °F - 35.1 °F 61% 29.87 in 10.0 mi South 17.3 mph - N/A   Overcast
11:53 AM 48.0 °F - 34.0 °F 58% 29.87 in 10.0 mi South 13.8 mph - N/A   Overcast
12:53 PM 54.0 °F - 34.0 °F 47% 29.85 in 10.0 mi SSW 19.6 mph 26.5 mph 0.00 in   Mostly Cloudy
1:53 PM 53.1 °F - 35.1 °F 50% 29.85 in 10.0 mi SSW 17.3 mph 27.6 mph N/A   Scattered Clouds
2:53 PM 53.1 °F - 33.1 °F 47% 29.85 in 10.0 mi SSW 16.1 mph 26.5 mph N/A   Scattered Clouds
3:53 PM 51.1 °F - 33.1 °F 50% 29.85 in 10.0 mi SSW 19.6 mph 26.5 mph N/A   Overcast
4:53 PM 51.1 °F - 32.0 °F 48% 29.84 in 10.0 mi SSW 16.1 mph 21.9 mph N/A   Overcast
5:53 PM 51.1 °F - 30.9 °F 46% 29.84 in 10.0 mi SW 12.7 mph 20.7 mph N/A   Overcast
6:53 PM 51.1 °F - 30.9 °F 46% 29.83 in 10.0 mi SSW 11.5 mph - N/A   Scattered Clouds
7:53 PM 46.0 °F 43.1 °F 33.1 °F 61% 29.83 in 10.0 mi South 5.8 mph - N/A   Mostly Cloudy
8:53 PM 42.1 °F 39.2 °F 32.0 °F 67% 29.84 in 10.0 mi SSE 4.6 mph - N/A   Clear
9:53 PM 36.0 °F - 30.9 °F 82% 29.84 in 10.0 mi Calm Calm - N/A   Clear
10:53 PM 39.0 °F - 35.1 °F 86% 29.83 in 10.0 mi Calm Calm - N/A   Overcast
11:53 PM 39.9 °F 37.8 °F 34.0 °F 79% 29.83 in 10.0 mi NW 3.5 mph - N/A   Overcast